North Platte, NE

3:34 AM CST on December 15, 2017 (GMT -0600)
North Platte Regional-Bird

Weather History for KLBF - March, 2013

Change the Weather History Date:

Sunday, March 24, 2013

  Actual Average Record
Temperature  
Mean Temperature 21 °F 40 °F  
Max Temperature 34 °F 55 °F 82 °F (2004)
Min Temperature 8 °F 26 °F 0 °F (1966)
Degree Days  
Heating Degree Days 44 25  
Month to date heating degree days 705 673  
Since 1 July heating degree days 5665 5701  
Cooling Degree Days 0 0  
Month to date cooling degree days 0 0  
Year to date cooling degree days 0 0  
Moisture  
Dew Point 11 °F    
Average Humidity 65    
Maximum Humidity 91    
Minimum Humidity 39    
Precipitation  
Precipitation 0.00 in 0.04 in 0.56 in (1902)
Month to date precipitation 0.21 0.75  
Year to date precipitation 1.49 1.59  
Snow  
Snow 0.00 in 0.10 in 4.70 in (1971)
Month to date snowfall 2.7 3.4  
Since 1 July snowfall 22.6 24.3  
Snow Depth 1.00 in    
Sea Level Pressure  
Sea Level Pressure 30.25 in    
Wind  
Wind Speed 13 mph (NW)    
Max Wind Speed 29 mph    
Max Gust Speed 36 mph    
Visibility 10 miles    
Events      
T = Trace of Precipitation, MM = Missing Value Source: NWS Daily Summary

Daily Weather History Graph

Daily Weather History Graph

Search for Another Location

Airport or City:

Trip Planner

Search our weather history database for the weather conditions in past years. The results will help you decide how hot, cold, wet, or windy it might be!

Date:

Astronomy

Mar. 24, 2013 Rise Set
Actual Time 7:38 AM CDT 7:59 PM CDT
Civil Twilight 7:11 AM CDT 8:27 PM CDT
Nautical Twilight 6:39 AM CDT 8:59 PM CDT
Astronomical Twilight 6:05 AM CDT 9:32 PM CDT
Moon 5:28 PM CDT (3/24) 5:51 AM CDT (3/24)
Length of Visible Light 13h 15m
Length of Day
12h 20m
Waxing Gibbous, 92% of the Moon is Illuminated
Mar 24
Waxing Gibbous
Mar 27
Full
Apr 2
Last Quarter
Apr 10
New
Apr 18
First Quarter

Hourly Weather History & Observations

Time (CDT) Temp. Windchill Dew Point Humidity Pressure Visibility Wind Dir Wind Speed Gust Speed Precip Events Conditions
12:53 AM 21.9 °F 12.5 °F 14.0 °F 72% 30.25 in 10.0 mi NNW 8.1 mph - N/A   Clear
1:53 AM 19.9 °F 10.1 °F 12.9 °F 74% 30.27 in 10.0 mi NNW 8.1 mph - N/A   Clear
2:53 AM 17.1 °F 5.8 °F 12.0 °F 81% 30.27 in 10.0 mi WNW 9.2 mph - N/A   Clear
3:53 AM 16.0 °F 4.4 °F 10.9 °F 81% 30.25 in 10.0 mi NW 9.2 mph - N/A   Clear
4:53 AM 12.0 °F 1.5 °F 9.0 °F 88% 30.25 in 10.0 mi NW 6.9 mph - N/A   Clear
5:53 AM 10.0 °F -0.9 °F 7.0 °F 87% 30.26 in 10.0 mi NW 6.9 mph - N/A   Clear
6:53 AM 9.0 °F -2.2 °F 6.1 °F 88% 30.27 in 10.0 mi NW 6.9 mph - N/A   Clear
7:53 AM 8.1 °F -3.2 °F 5.0 °F 87% 30.28 in 10.0 mi NW 6.9 mph - N/A   Clear
8:53 AM 15.1 °F 4.2 °F 10.0 °F 80% 30.26 in 10.0 mi NW 8.1 mph - N/A   Clear
9:53 AM 21.0 °F 8.6 °F 12.0 °F 68% 30.25 in 10.0 mi NNW 12.7 mph - N/A   Clear
10:53 AM 24.1 °F 12.0 °F 14.0 °F 65% 30.24 in 10.0 mi NNW 13.8 mph - N/A   Partly Cloudy
11:34 AM 26.6 °F 16.2 °F 15.8 °F 64% 30.14 in 10.0 mi NNW 11.5 mph - N/A   Mostly Cloudy
11:53 AM 26.1 °F 16.2 °F 15.1 °F 63% 30.24 in 10.0 mi NNW 10.4 mph - N/A   Overcast
12:53 PM 28.0 °F 16.5 °F 16.0 °F 61% 30.23 in 10.0 mi NW 15.0 mph - N/A   Overcast
1:53 PM 30.0 °F 19.1 °F 17.1 °F 59% 30.22 in 10.0 mi NW 15.0 mph 26.5 mph N/A   Overcast
2:53 PM 30.0 °F 18.7 °F 14.0 °F 51% 30.19 in 10.0 mi NNW 16.1 mph 24.2 mph N/A   Overcast
3:53 PM 32.0 °F 18.6 °F 12.0 °F 44% 30.18 in 10.0 mi NW 25.3 mph 34.5 mph N/A   Overcast
4:53 PM 32.0 °F 19.2 °F 10.9 °F 42% 30.18 in 10.0 mi NNW 23.0 mph 31.1 mph N/A   Scattered Clouds
5:53 PM 30.9 °F 17.5 °F 8.1 °F 38% 30.20 in 10.0 mi NNW 24.2 mph 31.1 mph N/A   Partly Cloudy
6:53 PM 28.0 °F 14.9 °F 8.1 °F 43% 30.23 in 10.0 mi NNW 19.6 mph 27.6 mph N/A   Mostly Cloudy
7:53 PM 24.1 °F 10.1 °F 9.0 °F 53% 30.27 in 10.0 mi North 18.4 mph 27.6 mph N/A   Partly Cloudy
8:53 PM 21.9 °F 9.2 °F 10.0 °F 60% 30.29 in 10.0 mi NNW 13.8 mph - N/A   Clear
9:53 PM 21.0 °F 8.6 °F 10.9 °F 65% 30.30 in 10.0 mi NNW 12.7 mph - N/A   Partly Cloudy
10:53 PM 17.1 °F 5.8 °F 10.9 °F 77% 30.31 in 10.0 mi NW 9.2 mph - N/A   Clear
11:53 PM 18.0 °F 7.7 °F 12.0 °F 78% 30.32 in 10.0 mi NW 8.1 mph - N/A   Clear